This demonstration page uses our WeatherBlox Daily Observations layout. Learn more.

Left ArrowRight Arrow

39.92423, -83.80882

Hourly Observations for July 20, 2020

Temp ( °F °C ) Dew Point ( °F °C ) Humidity (%) Winds ( mph kmh ) Pressure ( in mb ) Visibility ( mi km ) Precip ( " mm )
12:56 am 00:56 Clear 73 22.8 72 22.2 96 96 WSW 8 13 29.98 1015 10 16 N/A
1:56 am 01:56 Clear 73 22.8 72 22.2 96 96 W 9 15 29.97 1015 10 16 N/A
2:56 am 02:56 Cloudy 73 22.8 71 21.7 94 94 WNW 7 11 29.98 1015 10 16 N/A
3:56 am 03:56 Mostly Cloudy 73 22.8 72 22.2 96 96 WNW 6 9 29.98 1015 10 16 N/A
4:56 am 04:56 Mostly Cloudy 73 22.8 72 22.2 96 96 W 6 9 29.99 1016 10 16 N/A
5:56 am 05:56 Partly Cloudy 72 22.2 72 22.2 100 100 W 6 9 30.01 1016 10 16 N/A
6:56 am 06:56 Sunny 69 20.6 69 20.6 100 100 N N/A 29.99 1016 10 16 N/A
7:56 am 07:56 Sunny 72 22.2 72 22.2 100 100 SE 3 6 29.99 1016 10 16 N/A
8:56 am 08:56 Sunny 77 25 70 21.1 79 79 N N/A 30.01 1016 10 16 N/A
9:56 am 09:56 Sunny 80 26.7 70 21.1 71 71 W 3 6 30.03 1017 10 16 N/A
10:56 am 10:56 Mostly Sunny 80 26.7 69 20.6 69 69 SW 7 11 30.03 1017 10 16 N/A
11:56 am 11:56 Sunny 82 27.8 68 20 63 63 VRB 7 11 30.03 1017 10 16 N/A
12:56 pm 12:56 Mostly Cloudy 82 27.8 68 20 63 63 SSW 7 11 30.03 1017 10 16 N/A
1:56 pm 13:56 Partly Cloudy 86 30 67 19.4 53 53 WSW 12 19 30.01 1016 10 16 N/A
2:56 pm 14:56 Mostly Sunny 87 30.6 66 18.9 50 50 WSW 10 17 30.00 1016 10 16 N/A
3:56 pm 15:56 Sunny 88 31.1 64 17.8 45 45 NW 8 13 29.98 1015 10 16 N/A
4:56 pm 16:56 Mostly Cloudy 88 31.1 66 18.9 48 48 VRB 7 11 29.98 1015 10 16 N/A
5:56 pm 17:56 Sunny 87 30.6 67 19.4 51 51 WNW 8 13 29.97 1015 10 16 N/A
6:56 pm 18:56 Sunny 85 29.4 66 18.9 53 53 NW 7 11 29.98 1015 10 16 N/A
7:56 pm 19:56 Sunny 81 27.2 65 18.3 58 58 NNW 6 9 29.98 1015 10 16 N/A
8:56 pm 20:56 Sunny 79 26.1 67 19.4 67 67 N 6 9 29.98 1015 10 16 N/A
9:56 pm 21:56 Clear 77 25 67 19.4 71 71 N 3 6 30.01 1016 10 16 N/A
10:56 pm 22:56 Partly Cloudy 73 22.8 66 18.9 79 79 NNE 5 7 30.01 1016 10 16 N/A
11:56 pm 23:56 Mostly Cloudy 75 23.9 66 18.9 74 74 N 3 6 30.02 1017 10 16 N/A

Powered by AerisWeather